Theta_e
340 344 346 346 345 345 346 346 346 346 347 347 348 349 350 353 357 357 352 351 348 345 343 346 347 346 344 343 345 343 338 337 338
340 342 344 342 346 346 346 347 346 346 346 347 348 349 352 356 357 356 352 351 344 340 345 348 346 337 330 329 335 338 338 339 336
342 344 343 344 344 346 346 347 347 346 347 346 348 350 354 355 356 355 353 350 345 345 346 346 342 333 336 331 335 336 337 340 337
338 343 347 347 347 346 346 347 347 346 348 347 349 351 354 355 355 355 351 349 348 349 349 347 334 338 337 335 335 339 340 340 338
342 343 346 347 346 347 347 348 348 348 347 348 350 353 355 355 355 349 345 346 346 348 342 337 340 339 340 338 337 337 337 337 335
343 343 347 347 349 349 349 349 349 348 348 351 352 356 356 353 347 343 345 344 343 342 337 335 338 339 338 338 337 336 334 332 332
342 341 348 349 349 350 350 351 350 348 353 354 356 356 354 348 342 345 344 346 345 341 339 340 342 343 340 337 337 336 335 332 331
345 342 350 350 351 352 353 353 354 354 355 356 356 356 353 345 346 348 348 349 344 341 340 342 343 341 336 335 336 335 333 329 325
349 349 350 351 352 353 354 354 354 356 356 357 357 355 351 346 347 353 351 350 344 343 342 341 336 334 334 334 333 330 322 318 316
350 350 350 352 353 353 355 355 355 356 357 357 357 355 347 344 352 352 351 346 346 345 342 336 334 334 331 326 319 313 310 314 320
350 350 350 351 352 353 355 355 355 356 357 359 359 356 346 349 353 351 349 348 345 338 334 335 333 329 322 318 320 314 310 310 315
349 349 350 350 351 352 354 356 358 359 361 361 360 355 351 352 351 349 347 342 336 336 336 332 320 318 319 318 316 318 317 314 310
348 350 351 351 352 353 355 357 359 360 360 360 356 353 352 350 349 347 342 337 338 335 332 319 320 319 318 319 317 319 318 316 315
348 346 349 353 352 352 356 358 360 359 359 358 354 352 350 349 346 342 338 339 337 333 320 319 320 320 321 322 322 322 320 318 315
349 350 349 353 352 355 359 359 360 359 355 353 352 351 350 345 344 340 340 339 335 320 317 316 321 322 323 324 324 324 323 322 318
350 350 351 354 354 355 359 359 358 355 350 350 350 351 347 345 343 341 340 338 326 315 320 321 323 322 322 319 319 318 320 321 314
349 353 356 355 356 358 360 358 356 353 349 346 350 346 343 340 340 339 338 328 316 321 323 324 323 320 318 316 316 314 313 310 309
353 354 358 358 359 359 359 355 353 351 345 347 347 335 334 334 335 339 335 326 322 323 322 319 318 316 312 308 307 309 311 311 312
352 351 352 355 355 353 353 352 352 350 346 347 339 334 333 337 339 336 332 329 323 325 319 316 315 315 314 314 314 314 313 313 314
349 351 352 352 351 351 352 351 350 349 349 339 333 333 332 337 337 337 333 323 321 321 320 317 316 315 315 314 315 315 315 315 316
Wind_Speed
4 12 14 33 41 42 44 38 38 36 35 34 30 26 24 22 19 16 14 8 4 5 5 3 3 5 4 4 4 5 5 4 2
18 22 29 28 40 46 45 39 38 34 36 34 31 29 26 23 19 15 12 9 7 6 6 3 2 0 3 2 3 2 3 5 5
16 21 38 39 41 45 46 41 38 33 35 32 32 30 27 21 17 13 12 11 6 8 7 6 2 4 5 4 3 2 1 2 2
14 10 26 35 39 45 47 39 38 35 35 34 33 30 23 19 16 12 13 10 10 10 8 6 6 3 1 1 3 4 2 1 3
14 12 22 40 44 46 40 41 37 37 38 33 30 25 19 16 14 14 14 14 11 10 9 9 6 4 3 1 2 2 3 2 3
20 10 14 20 25 32 30 33 35 38 36 31 27 22 18 17 18 18 17 14 11 12 9 9 7 3 1 1 2 2 3 2 1
32 21 20 21 24 28 30 30 34 35 32 28 24 19 19 20 19 20 16 15 11 11 9 8 6 6 5 5 3 4 6 5 6
16 22 26 24 25 25 23 24 32 34 31 27 23 20 21 20 21 20 19 16 14 12 11 10 9 8 6 5 6 7 7 9 6
20 33 28 26 26 25 25 27 33 32 31 28 23 23 22 23 26 25 23 18 15 13 12 10 8 6 4 5 6 8 7 5 4
36 35 32 32 32 32 31 32 33 34 31 28 25 26 25 28 27 27 21 18 16 14 12 10 7 5 5 5 2 1 2 3 2
40 38 36 34 34 33 32 32 32 31 29 27 27 27 28 28 29 26 23 19 17 15 10 6 5 5 4 2 2 5 3 1 6
41 37 37 36 34 35 34 34 32 31 30 30 29 29 30 30 29 25 22 19 15 12 9 7 4 1 1 2 5 9 9 6 2
14 23 36 38 36 37 37 36 34 31 30 31 32 32 30 28 25 23 20 18 15 11 8 7 5 3 4 5 5 4 4 5 6
11 4 17 34 41 38 39 37 34 28 26 32 32 30 26 24 22 18 18 17 13 11 9 6 5 6 7 3 0 0 2 4 6
23 15 12 22 36 36 37 35 29 27 30 30 26 24 24 23 19 17 16 13 11 11 8 9 10 7 4 2 5 6 7 8 10
22 15 6 24 34 37 35 30 25 22 15 15 18 23 25 21 17 15 13 10 10 10 12 13 12 9 7 5 5 5 8 10 9
22 16 15 23 31 34 34 28 25 18 24 21 32 34 23 9 15 15 15 13 12 15 12 7 2 1 5 5 3 3 3 8 8
18 12 9 21 29 33 32 24 29 29 28 31 31 12 21 29 24 24 18 13 12 12 8 5 2 2 3 3 3 4 3 2 0
8 11 9 13 18 19 17 22 33 30 28 36 23 12 30 31 24 13 15 14 13 12 9 6 7 6 8 8 8 6 3 1 5
8 6 5 3 10 16 16 22 25 24 32 26 14 20 31 29 18 16 16 15 11 13 13 9 6 4 4 6 8 5 5 5 10
Wind_Direction
195 200 219 216 222 226 214 214 218 221 224 224 224 224 225 228 236 240 252 259 212 214 180 161 336 345 11 27 64 83 74 76 69
269 257 249 227 223 226 220 212 219 225 223 220 223 223 221 223 233 241 231 203 209 202 176 183 321 228 89 95 118 89 50 45 46
264 252 235 235 227 222 217 212 218 226 224 220 222 217 218 227 235 220 204 198 196 190 183 217 235 142 115 93 145 174 214 13 5
258 328 235 221 219 223 213 212 212 223 219 218 215 213 215 224 219 205 193 194 197 190 201 229 186 180 171 157 201 205 211 290 335
279 299 214 214 212 214 214 212 213 220 218 212 207 203 209 204 200 186 187 182 185 188 186 179 189 193 203 179 180 191 234 248 324
272 266 195 171 185 199 200 203 208 205 203 199 194 196 193 185 180 177 172 169 164 171 176 182 185 201 260 272 221 257 321 286 335
258 249 182 169 168 182 187 193 197 197 191 190 191 190 187 183 178 171 170 169 178 182 181 183 188 225 260 277 251 279 301 287 313
253 217 188 179 176 181 185 187 188 189 189 189 190 190 186 182 175 173 174 184 197 194 191 196 215 240 245 246 262 262 259 272 277
206 193 189 190 196 199 199 198 192 189 189 189 189 188 183 182 181 181 186 196 191 192 198 213 225 219 233 248 263 275 270 253 267
200 191 192 196 202 203 199 195 193 190 192 190 190 189 188 184 183 184 194 197 199 204 217 214 226 230 250 264 260 179 257 257 247
202 197 199 203 203 203 201 199 195 194 195 194 194 195 189 185 187 192 195 199 206 212 198 202 225 244 247 264 83 95 94 262 250
207 208 210 211 215 211 208 206 202 196 195 196 199 198 190 189 192 195 197 199 207 189 195 207 220 198 74 74 115 103 81 65 26
181 224 225 215 213 213 210 209 204 199 201 199 195 194 192 194 197 199 199 193 193 189 194 200 176 107 78 101 123 114 87 58 45
12 238 221 223 214 215 210 209 202 208 219 205 195 191 190 192 195 198 200 193 185 187 186 180 158 135 121 108 61 300 297 319 331
2 353 210 217 211 209 205 208 208 211 193 188 180 183 189 188 192 195 196 193 191 179 170 156 158 172 157 239 259 248 262 276 302
359 341 243 210 202 202 201 204 213 214 178 166 207 193 188 180 195 192 197 213 188 168 156 164 170 189 207 231 225 238 252 273 314
345 340 197 200 200 195 189 200 206 180 173 182 179 176 161 153 218 200 190 183 180 170 172 185 194 188 197 212 274 311 299 322 330
346 354 216 205 196 194 193 195 185 182 187 183 173 145 225 184 189 203 185 176 174 175 168 123 89 271 309 321 9 28 9 336 43
312 335 345 245 231 216 234 200 196 193 191 181 184 252 187 194 195 194 187 183 185 171 154 128 114 88 85 86 64 48 42 38 335
319 7 358 290 247 254 225 208 210 200 186 178 174 170 184 192 186 189 188 182 174 176 174 167 151 139 90 92 67 37 24 338 310